Location: Julian California
(33.0790°N, 116.6010°W)
Time: 07:42:54
(UTC-07:00)

CARTOSAT-1 - Pass Details

Date: 12 July 2018
Orbit: 617 x 620 km, 97.8° (Epoch: 20 July)

Event Time Altitude Azimuth Distance (km) Brightness Sun altitude
Exits shadow 22:51:41 51° 340° (NNW) 778 4.3 -28.0°
Drops below altitude 10° 22:54:57 10° 347° (NNW) 1,984 7.0 -28.4°
Sets 22:57:08 0° 348° (NNW) 2,893 8.1 -28.6°
